{"data":{"norad_id":62495,"epoch":"2026-05-25T05:12:10.889280Z","epoch_age_seconds":59892,"freshness":"FRESH","line1":"1 62495U 25003J   26145.21679270  .00027005  00000+0  98739-3 0  9990","line2":"2 62495  42.9966 216.9381 0000402  96.1084 263.9814 15.27576010 78257","mean_motion":15.2757601,"eccentricity":4.02e-5,"inclination_deg":42.9966,"raan_deg":216.9381,"arg_perigee_deg":96.1084,"mean_anomaly_deg":263.9814,"bstar":0.00098739,"rev_number":7825,"period_min":94.266994936638,"perigee_km":482.7852233997,"apogee_km":483.3368637224,"semimajor_km":6861.1980435611,"source":"CELESTRAK","updated_at":"2026-05-25T13:38:19.697804Z"}}